Weather in Zhiguliovsk

Russia / Samara Oblast     53°24′06″N   49°29′40″E
temp.,
°C
wind,
m/s
gust,
m/s
humid.,
%
clouds,
%
prec.,
mm/h
press.,
hPa
HPBL,
m
3 march, wed
wed301:00−4wnw2297100 0.3 100235
04:00−5wsw229699 0.4 100330
07:00−7w239691 0.0 100325
10:00−5wnw479686 0.3 1004344
13:00−3nw688699 0.1 1004772
16:00−4nw6989100 0.3 1006858
19:00−7wnw4109199 0.1 1007314
22:00−8wnw499399 0.1 1009290
4 march, thu
thu401:00−11wsw459594 0.0 100894
04:00−11sw469471 0.0 1008103
07:00−10ssw599579 0.0 1006214
10:00−5sw6139090 0.1 1005583
13:00−1sw81285100 0.1 1003909
16:000wsw91594100 0.4 10011009
19:00+1wsw81492100 0.1 1001815
22:000wsw81490100 0.4 1002695
5 march, fri
fri501:00−1sw61393100 0.2 1001531
04:00−1sw71393100 0.5 1001527
07:00−1sw61297100 1.1 1000489
10:000ssw61199100 2.8 999502
13:00+1sw71499100 1.1 999608
16:00−2nnw6993100 1.3 1002561
19:00−6nnw4894100 0.1 1006227
22:00−11nnw239477 0.1 101037
6 march, sat
sat601:00−13n129297 0.0 101221
04:00−13ne229298 0.0 101321
07:00−12ne2292100 0.0 101348
10:00−11nne3492100 0.0 1013212
13:00−9n3492100 0.0 1012338
16:00−9n3491100 0.0 1011276
19:00−15n119549 0.0 101221
22:00−15sw119036 0.0 101220
7 march, sun
sun701:00−12sw239680 0.1 101348
04:00−12nw389690 0.6 1014245
07:00−18wnw229878 0.0 101520
10:00−15sw238943 0.0 1015127
13:00−10ssw57830 0.0 1015344
16:00−10ssw712838 0.0 1012436
19:00−10ssw8159097 0.0 1010502
22:00−7ssw10179098 0.1 1007821